TimeEST,TemperatureF,Dew PointF,Humidity,Sea Level PressureIn,VisibilityMPH,Wind Direction,Wind SpeedMPH,Gust SpeedMPH,PrecipitationIn,Events,Conditions,WindDirDegrees,DateUTC
12:56 AM,19.9,7.0,57,30.00,10.0,WNW,16.1,25.3,N/A,,Clear,290,2012-12-31 05:56:00
1:56 AM,21.0,7.0,55,30.02,10.0,WNW,16.1,21.9,N/A,,Clear,290,2012-12-31 06:56:00
2:56 AM,21.0,8.1,57,30.04,10.0,WNW,8.1,-,N/A,,Clear,290,2012-12-31 07:56:00
3:56 AM,19.0,8.1,62,30.04,10.0,SW,8.1,-,N/A,,Clear,220,2012-12-31 08:56:00
4:56 AM,19.0,8.1,62,30.04,10.0,West,6.9,-,N/A,,Clear,260,2012-12-31 09:56:00
5:56 AM,19.9,9.0,62,30.05,10.0,WSW,8.1,-,N/A,,Clear,240,2012-12-31 10:56:00
6:56 AM,19.9,10.9,68,30.06,10.0,SW,9.2,-,N/A,,Clear,220,2012-12-31 11:56:00
7:56 AM,19.9,10.9,68,30.06,10.0,WSW,5.8,-,N/A,,Scattered Clouds,240,2012-12-31 12:56:00
8:56 AM,21.9,14.0,72,30.07,10.0,SW,8.1,-,N/A,,Overcast,230,2012-12-31 13:56:00
9:56 AM,25.0,17.1,72,30.07,10.0,SW,6.9,-,N/A,,Overcast,230,2012-12-31 14:56:00
10:56 AM,28.0,19.9,72,30.04,10.0,SW,13.8,-,N/A,,Overcast,230,2012-12-31 15:56:00
11:56 AM,30.0,21.9,72,30.00,10.0,WSW,13.8,-,N/A,,Mostly Cloudy,240,2012-12-31 16:56:00
12:56 PM,30.9,21.9,69,29.97,10.0,West,10.4,21.9,N/A,,Mostly Cloudy,270,2012-12-31 17:56:00
1:56 PM,32.0,23.0,69,29.95,10.0,WSW,11.5,-,N/A,,Overcast,250,2012-12-31 18:56:00
2:56 PM,32.0,21.9,66,29.95,10.0,West,8.1,18.4,N/A,,Partly Cloudy,260,2012-12-31 19:56:00
3:56 PM,32.0,21.9,66,29.94,10.0,West,9.2,18.4,N/A,,Clear,270,2012-12-31 20:56:00
4:56 PM,28.9,21.0,72,29.92,10.0,Calm,Calm,-,N/A,,Clear,0,2012-12-31 21:56:00
5:56 PM,28.4,21.2,74,29.85,10.0,SW,4.6,-,N/A,,Clear,220,2012-12-31 22:56:00
6:56 PM,28.9,21.0,72,29.90,10.0,SW,4.6,-,N/A,,Mostly Cloudy,220,2012-12-31 23:56:00
7:56 PM,30.2,21.2,69,29.83,10.0,WSW,5.8,-,N/A,,Clear,240,2013-01-01 00:56:00
8:56 PM,30.9,21.0,67,29.85,10.0,WSW,5.8,-,N/A,,Clear,240,2013-01-01 01:56:00
9:56 PM,32.0,21.9,66,29.84,10.0,SW,8.1,-,N/A,,Mostly Cloudy,230,2013-01-01 02:56:00
10:56 PM,32.0,21.9,66,29.82,10.0,WSW,6.9,-,N/A,,Overcast,240,2013-01-01 03:56:00
11:56 PM,32.0,21.9,66,29.81,10.0,SW,6.9,-,N/A,,Overcast,220,2013-01-01 04:56:00